Regional Weather Roundup
Issued by NWS Raleigh/Durham, NC

Home | Current Version | Previous Version | Text Only | Print | Product List | Glossary On
Versions: 1 2 3 4 5 6 7 8 9 10 11 12 13 14 15 16 17 18 19 20 21 22 23 24 25 26 27 28 29 30 31 32 33 34 35 36 37 38 39 40 41 42 43 44 45 46 47 48 49 50
000
ASUS42 KRAH 040810
RWRRAH
NORTH CAROLINA WEATHER ROUNDUP
NATIONAL WEATHER SERVICE RALEIGH NC
400 AM EDT MON MAY 04 2015

NOTE: "FAIR" INDICATES FEW OR NO CLOUDS BELOW 12,000 FEET WITH NO
SIGNIFICANT WEATHER AND/OR OBSTRUCTIONS TO VISIBILITY.

NCZ001-053-055-056-065-067-040900-
WESTERN NORTH CAROLINA

CITY           SKY/WX    TMP DP  RH WIND       PRES   REMARKS
ASHEVILLE      CLEAR     51  47  86 CALM      30.25R
JEFFERSON      MOCLDY    57  42  57 CALM      30.26R
MORGANTON      CLEAR     50  50  99 N3        30.26S
HICKORY        CLEAR     60  49  66 CALM      30.21R
RUTHERFORDTON  MOCLDY    53  51  94 CALM      30.22S
MOUNT AIRY     PTCLDY    61  49  65 CALM      30.24R
BOONE          CLEAR     48  44  85 CALM      30.27S
$$

NCZ021-022-025-041-071-084-088-040900-
CENTRAL NORTH CAROLINA

CITY           SKY/WX    TMP DP  RH WIND       PRES   REMARKS
CHARLOTTE      MOCLDY    58  51  78 S6        30.22S
GREENSBORO     PTCLDY    58  50  75 S6        30.22S
WINSTON-SALEM  CLOUDY    62  50  64 S3        30.23S
RALEIGH-DURHAM PTCLDY    58  52  80 CALM      30.24S
FORT BRAGG     PTCLDY    58  53  81 CALM      30.23S
FAYETTEVILLE   PTCLDY    54  50  86 CALM      30.24S
BURLINGTON     PTCLDY    57  50  77 CALM      30.23S
LAURINBURG     MOCLDY    57  54  89 S3        30.24F
$$

NCZ011-015-027-028-043-044-047-080-103-040900-
NORTHEASTERN NORTH CAROLINA

CITY           SKY/WX    TMP DP  RH WIND       PRES   REMARKS
ROCKY MT-WILSO CLOUDY    53  49  86 CALM      30.25S
GREENVILLE     PTCLDY    55  50  82 CALM      30.26S
WASHINGTON     PTCLDY    55  50  83 CALM      30.26S
ELIZABETH CITY CLEAR     54  48  80 SW7       30.25R
MANTEO         CLOUDY    59  53  78 CALM      30.25S
CAPE HATTERAS  PTCLDY    57  55  93 NW3       30.25S
$$

NCZ078-087-090-091-093-098-101-040900-
SOUTHEASTERN NORTH CAROLINA

CITY           SKY/WX    TMP DP  RH WIND       PRES   REMARKS
LUMBERTON      CLEAR     51  50  96 CALM      30.24S
GOLDSBORO      CLEAR     53  49  88 CALM      30.23S
KINSTON        CLEAR     50  49  96 CALM      30.26S
KENANSVILLE    CLEAR     48  47  95 CALM      30.26S
NEW BERN         N/A     53  50  89 CALM      30.26S
CHERRY POINT   CLEAR     52  50  93 CALM      30.26S
BEAUFORT       CLEAR     56  55  97 CALM      30.25S
JACKSONVILLE   CLEAR     53  51  93 CALM      30.25S
WILMINGTON     CLEAR     53  51  93 CALM      30.24S
$$




USA.gov is the U.S. government's official web portal to all federal, state and local government web resources and services.